Погода в Оленегорске

Россия / Республика Саха (Якутия)     69°48′41″N   147°29′11″E
темп.,
°C
ветер,
м/с
пор.,
м/с
влажн.,
%
обл.,
%
осадки,
мм/ч
давл.,
гПа
погр.,
м
1 марта, пн
пн123:00−34ююв2210060 0.0 102819
02:00−35юв1110087 0.0 102719
05:00−36ю1110058 0.0 102719
08:00−37зсз0010016 0.0 102619
11:00−34ссз019613 0.0 102619
14:00−31ссз22950 0.0 102498
17:00−32ссз23960 0.0 102320
20:00−34ссз22980 0.0 102419
2 марта, вт
вт223:00−35сз111003 0.0 102419
02:00−35сз1110068 0.0 102419
05:00−36з1110078 0.0 102419
08:00−35з1110098 0.0 102619
11:00−33зюз119899 0.0 102619
14:00−31зюз119699 0.0 102794
17:00−33юз1110095 0.0 102719
20:00−35ююв1110092 0.0 102919
3 марта, ср
ср323:00−37ююв1110082 0.0 102919
02:00−37юв111004 0.0 102919
05:00−38в1110012 0.0 102819
08:00−38вюв0010056 0.0 102819
11:00−35с119674 0.0 102619
14:00−32ссз1293100 0.0 1025152
17:00−32сз1196100 0.0 102277
20:00−33ссз1196100 0.0 102119
4 марта, чт
чт423:00−34ссз1296100 0.0 101919
02:00−33ссз2295100 0.0 101734
05:00−33ссз3495100 0.0 1015120
08:00−34с5796100 0.0 1012184
11:00−31ссз71297100 0.0 1008424
14:00−27ссз91495100 0.1 1005544
17:00−25с101693100 0.1 1002724
20:00−24с111796100 0.4 1001803
5 марта, пт
пт523:00−24с101696100 1.4 999874
02:00−23с101696100 1.3 999921
05:00−23с121796100 2.6 999894
08:00−23ссз111696100 0.7 10001004
11:00−23ссз111696100 1.4 10011097
14:00−22ссз111595100 0.7 10021103
17:00−22ссз101496100 1.3 10031039
20:00−22ссз101596100 0.7 1004985